Starlink 1112

operational
NORAD ID: 44925 Int'l Des: 2020-001 Owner: SPXS Country: US Constellation: starlink
LEOCIRCULAR

Starlink 1112について

説明を読み込み中...

リアルタイム位置

3D地球を読み込み中...

次回通過

高度履歴

Altitude vs Time

uPlot chart will show altitude changes over time

軌道要素

1 44925U 20001M 25258.08930244 .00020258 00000-0 42730-3 0 9995
2 44925 53.0548 26.9115 0004717 136.2981 223.8399 15.45223282313775
Epoch: Sep 15, 2025 • Age: 16 hours

現在のステータス

高度 429.5 km
速度 7.66 km/s
衛星直下点 32.33°N, 93.41°W
打ち上げ日 Jan 7, 2020
運用期間 5.6 years
タイプ internet

技術仕様

分類 Payload
質量 260.00 kg
乾燥質量 248.00 kg
総質量 260.00 kg
長さ 0.20 m
直径 2.80 m
スパン 9.00 m
形状 Box + pan
製造者 SPXS
バスタイプ Starlink
フェーズステータス In Orbit
所有者/国 SPXS/US

大規模コンステレーション

Loading constellations...